Regional Weather Roundup
Issued by NWS

Home | Current Version | Previous Version | Graphics & Text | Print | Product List | Glossary On
Versions: 1 2 3 4 5 6 7 8 9 10 11 12 13 14 15 16 17 18 19 20 21 22 23 24 25 26 27 28 29 30 31 32 33 34 35 36 37 38 39 40 41 42 43 44 45 46 47 48 49 50
000
ASUS43 KFSD 221910
RWRSD

WEATHER ROUNDUP FOR SOUTH DAKOTA
NATIONAL WEATHER SERVICE SIOUX FALLS SD
200 PM CDT SAT APR 22 2017

NOTE: "FAIR" INDICATES FEW OR NO CLOUDS BELOW 12,000 FEET WITH NO
SIGNIFICANT WEATHER AND/OR OBSTRUCTIONS TO VISIBILITY.


SDZ001>005-009-010-012>017-222000-
NORTHWEST AND NORTH CENTRAL SOUTH DAKOTA

CITY           SKY/WX    TMP DP  RH WIND       PRES   REMARKS
BUFFALO          N/A     61  40  45 W17       30.13F
FAITH            N/A     61  40  45 W9        30.19F
MOBRIDGE       SUNNY     67  34  29 SW13      30.16F
$$

SDZ012>016-024>037-041>051-057-063-072>074-222000-
SOUTHWEST AND SOUTH CENTRAL SOUTH DAKOTA

CITY           SKY/WX    TMP DP  RH WIND       PRES   REMARKS
RAPID CTY ARPT MOSUNNY   60  38  43 SE9       30.21F
PIERRE         SUNNY     63  31  30 SW8       30.21F
CUSTER         MOSUNNY   51  28  41 SW10      30.24F
ELLSWORTH AFB  MOSUNNY   61  37  41 SE3G17    30.20F
PHILIP         SUNNY     64  40  41 W8        30.21F
PINE RIDGE     SUNNY     60  37  42 MISG      30.24F
SPEARFISH      FAIR      57  37  47 E8        30.21F
WINNER         FAIR      63  34  33 SW8       30.25F
$$

SDZ004>011-016>023-039-040-222000-
NORTHEAST SOUTH DAKOTA

CITY           SKY/WX    TMP DP  RH WIND       PRES   REMARKS
ABERDEEN       SUNNY     66  34  30 W14       30.19F
WATERTOWN      SUNNY     63  36  36 W12       30.22F
BROOKINGS      SUNNY     61  36  39 W14       30.23F
SISSETON         N/A     66  40  38 W14       30.19F
$$

SDZ017-020-022-023-036>040-048>070-222000-
SOUTHEAST SOUTH DAKOTA

CITY           SKY/WX    TMP DP  RH WIND       PRES   REMARKS
SIOUX FALLS    MOSUNNY   64  36  35 CALM      30.23F
HURON          SUNNY     65  36  34 VRB3G18   30.22F
CHAMBERLAIN    SUNNY     64  39  39 S5        30.24F
MITCHELL       SUNNY     65  37  35 VRB7      30.24F
YANKTON        SUNNY     63  34  34 NW5       30.25F
$$

ABBREVIATIONS USED IN REMARKS
   TC - TEMPERATURE IN CELSIUS
  WCI - WIND CHILL INDEX
   HX - HEAT INDEX
  VSB - VISIBILITY





USA.gov is the U.S. government's official web portal to all federal, state and local government web resources and services.